Regional Weather Roundup
Issued by NWS

Home | Current Version | Previous Version | Text Only | Print | Product List | Glossary Off
Versions: 1 2 3 4 5 6 7 8 9 10 11 12 13 14 15 16 17 18 19 20 21 22 23 24 25 26 27 28 29 30 31 32 33 34 35 36 37 38 39 40 41 42 43 44 45 46 47 48 49 50

000
ASUS43 KDMX 251706
RWRIA

WEATHER ROUNDUP FOR IOWA
NATIONAL WEATHER SERVICE DES MOINES IA
1200 PM CDT WED APR 25 2018

NOTE: "FAIR" INDICATES FEW OR NO CLOUDS BELOW 12,000 FEET WITH NO
SIGNIFICANT WEATHER AND/OR OBSTRUCTIONS TO VISIBILITY.

* - THESE STATIONS ARE NOT NWS STATIONS...THUS NOT UNDER NWS
QUALITY CONTROL.  THEY ALSO DO NOT REPORT WEATHER SUCH
AS PRECIPITATION OR FOG.

IAZ001>003-012>014-020>022-031>034-043>046-251800-
   NORTHWEST IOWA

CITY           SKY/WX    TMP DP  RH WIND       PRES   REMARKS
CARROLL *      SUNNY     55  28  35 N10G21    30.20S
CHEROKEE *     SUNNY     53  33  45 NE7       30.22F
DENISON *      MOSUNNY   55  32  41 NE10G17   30.22F
LE MARS *      SUNNY     54  30  40 VRB7G16   30.23F
ORANGE CITY *  SUNNY     54  34  47 N5        30.23F
SHELDON *      SUNNY     52  28  40 N9G15     30.21F
SIOUX CITY     SUNNY     54  35  48 NW7       30.24F
SPENCER        SUNNY     53  31  42 NW9       30.22F
STORM LAKE *     N/A     52  30  43 NE8G16    30.21F
$$

IAZ055>058-069>071-079>083-090>094-251800-
   SOUTHWEST IOWA

CITY           SKY/WX    TMP DP  RH WIND       PRES   REMARKS
ATLANTIC *     CLOUDY    52  37  58 NW5       30.21F
AUDUBON *      CLOUDY    55  32  41 NE6G18    30.20F
CRESTON *      CLOUDY    48  39  71 N9        30.20S
HARLAN  *      MOSUNNY   52  37  58 N8        30.25F
LAMONI         CLOUDY    50  41  71 N9        30.16F
RED OAK *      CLOUDY    48  41  76 N9        30.22F
SHENANDOAH *   CLOUDY    48  45  87 N7        30.23F
$$

IAZ047>049-059>061-072>074-084-251800-
   CENTRAL IOWA

CITY           SKY/WX    TMP DP  RH WIND       PRES   REMARKS
AMES           MOSUNNY   59  31  34 N12       30.18F
ANKENY *       CLOUDY    57  28  33 N10G16    30.18F
BOONE *        SUNNY     55  34  44 N9G16     30.18S
CHARITON *     CLOUDY    54  39  58 N8        30.16S
DES MOINES     CLOUDY    60  31  33 NE10      30.17F
GRINNELL*      CLOUDY    57  31  36 NE7       30.17F
KNOXVILLE *    CLOUDY    57  36  44 N10       30.14F
MARSHALLTOWN   MOSUNNY   57  30  35 VRB7      30.16F
NEWTON *       CLOUDY    57  32  38 VRB5G14   30.16F
PELLA *        CLOUDY    59  33  38 N8        30.16F
PERRY *        FAIR      55  28  35 NE10G16   30.19S
$$

IAZ004>006-015-016-023>025-035-036-251800-
   NORTH CENTRAL IOWA

CITY           SKY/WX    TMP DP  RH WIND       PRES   REMARKS
ALGONA *       SUNNY     50  36  57 N10       30.21F
CLARION *      SUNNY     54  32  43 N8        30.19F
ESTHERVILLE    SUNNY     48  35  60 N9        30.21F
FORT DODGE *   SUNNY     54  34  46 N9        30.20F
MASON CITY     SUNNY     54  36  50 N8        30.20F
FOREST CITY *  FAIR      52  34  50 NW8       30.19F
WEBSTER CITY * SUNNY     55  32  41 NE7G14    30.16F
IOWA FALLS *   FAIR      57  33  39 N8G16     30.19S
$$

IAZ007>011-017>019-026>030-037>042-050>054-066-251800-
   NORTHEAST IOWA

CITY           SKY/WX    TMP DP  RH WIND       PRES   REMARKS
CEDAR RAPIDS   FAIR      59  34  39 N8        30.13F
CHARLES CITY * FAIR      54  32  43 VRB5G15   30.18F
CLINTON *      FAIR      57  35  43 E9        30.13F
DECORAH *      FAIR      52  34  50 NW9G17    30.15F
DUBUQUE        FAIR      55  33  43 E8G16     30.13F
MONTICELLO *   FAIR      57  32  38 E8        30.13F
OELWEIN *      FAIR      55  32  41 NE12      30.16F
WATERLOO       FAIR      57  32  38 NE12      30.15F
$$

IAZ064-065-067-068-078-251800-
   EAST CENTRAL IOWA

CITY           SKY/WX    TMP DP  RH WIND       PRES   REMARKS
DAVENPORT      FAIR      59  34  39 VRB7G17   30.15F
IOWA CITY      FAIR      59  34  39 VRB6      30.15F
MT. PLEASANT * CLOUDY    55  34  44 NE7       30.13F
MUSCATINE *    FAIR      59  34  38 NE15      30.13F
QUAD CITIES    FAIR      60  35  39 NE14      30.12F
$$

IAZ062-063-075>077-085>089-095>099-251800-
   SOUTHEAST IOWA

CITY           SKY/WX    TMP DP  RH WIND       PRES   REMARKS
BURLINGTON     CLOUDY    58  37  45 NE8       30.12F
FAIRFIELD *    CLOUDY    57  36  44 NE12      30.13F
FORT MADISON * CLOUDY    57  37  47 E8        30.13F
KEOKUK *       CLOUDY    55  37  50 NE8G17    30.11F
OSKALOOSA *    FAIR      58  35  41 NE8       30.15F
CENTERVILLE *  FAIR      54  39  58 N8        30.16F
OTTUMWA        CLOUDY    58  37  45 NE8       30.14F
WASHINGTON *   CLOUDY    57  36  44 NE9       30.14F
$$

ABBREVIATIONS USED IN REMARKS
   TC - TEMPERATURES IN CELSIUS
  WCI - WIND CHILL INDEX
   HX - HEAT INDEX
  VSB - VISIBILITY
$$




USA.gov is the U.S. government's official web portal to all federal, state and local government web resources and services.